Temp
44 44 45 45 45 46 45 45 44 45 45 45 45 46 46 46 45 45 45 45 45 45 44 44 44 44 45 44 44 44 44 44 45 43 44 45 44 44 44 43 41 43
43 44 45 45 44 44 44 45 45 46 45 45 46 46 46 45 44 45 45 45 45 45 44 44 44 44 43 43 42 43 42 43 43 43 44 43 44 43 44 43 43 42
42 42 43 43 44 43 44 44 45 46 46 46 46 45 45 45 44 44 45 45 45 44 44 44 43 43 44 43 43 43 43 42 43 42 43 44 43 43 44 43 42 42
42 43 44 44 44 44 44 43 43 44 44 44 44 45 46 45 45 44 44 45 45 44 44 43 44 43 43 43 43 43 43 43 44 42 43 42 42 43 43 43 42 41
42 42 43 43 43 43 43 43 43 43 43 45 44 44 44 43 43 43 43 44 44 44 43 43 43 43 43 43 42 43 42 43 41 41 42 42 42 42 43 42 42 42
40 42 42 43 43 42 42 43 43 43 43 42 44 44 44 44 44 44 43 43 43 44 43 43 43 42 42 42 42 43 42 42 41 41 41 42 42 41 42 41 42 42
41 40 41 41 41 42 43 42 43 43 43 44 42 43 43 43 43 43 43 44 43 43 43 43 43 42 42 42 42 41 42 42 41 41 41 41 42 41 40 40 41 42
41 39 41 40 41 40 42 42 42 42 43 42 43 43 43 44 44 44 43 44 43 43 43 43 43 43 42 42 42 41 41 42 42 41 41 41 40 41 40 40 40 41
39 39 40 39 40 40 40 41 41 41 41 42 43 42 42 44 44 43 43 43 43 43 43 43 43 43 42 42 42 42 42 42 42 41 41 41 40 41 41 40 39 40
38 39 38 39 39 40 40 40 41 41 40 41 42 41 41 42 43 43 43 43 43 42 43 43 43 42 41 42 42 42 42 42 41 41 41 41 41 41 40 39 40 40
37 38 38 38 39 39 40 40 39 39 39 41 40 40 41 40 40 41 42 42 42 42 42 42 42 42 42 41 42 42 42 42 42 42 41 41 42 42 41 40 40 40
37 37 38 39 39 39 39 39 39 39 39 39 40 41 40 40 41 40 41 41 42 42 42 42 42 42 42 42 42 41 41 41 41 41 41 41 40 40 40 40 40 40
37 38 39 39 39 39 38 38 38 38 39 39 38 40 40 39 39 40 39 41 41 41 41 41 41 41 41 41 41 41 41 40 40 40 40 39 40 40 40 40 40 40
38 38 37 38 37 36 37 37 37 37 38 38 37 39 39 39 39 39 38 39 40 40 40 40 40 40 39 40 40 40 39 39 39 39 39 38 37 38 38 39 39 39
36 34 34 34 35 35 35 36 36 36 36 36 36 37 37 38 38 39 37 37 36 37 38 37 39 39 39 39 39 38 39 39 39 39 38 38 37 37 37 37 36 36
34 33 34 33 34 35 35 34 34 34 34 34 35 35 34 34 35 35 36 37 36 35 35 35 37 38 38 40 41 40 38 39 38 37 37 37 36 35 34 34 35 35
33 33 33 34 34 33 33 34 34 33 33 33 33 33 34 33 34 35 34 34 36 35 35 34 36 37 39 41 42 42 39 37 37 37 36 36 35 35 34 33 33 34
33 32 33 33 32 34 33 33 32 32 33 33 32 32 31 32 33 34 34 33 33 33 34 33 34 37 40 41 42 42 40 37 36 36 35 34 34 34 33 32 32 32
32 33 32 32 33 33 32 32 32 32 31 33 34 32 31 33 32 32 32 31 33 33 31 31 32 39 40 41 41 42 41 38 35 34 34 33 33 32 32 32 31 31
32 32 31 32 33 32 33 32 33 33 32 32 33 33 33 32 32 32 32 32 32 31 31 31 31 37 40 40 40 41 41 38 33 33 32 32 32 32 31 31 31 31
32 32 32 32 32 32 33 33 33 32 32 32 33 34 32 31 31 31 32 31 32 32 32 32 32 38 39 40 40 41 41 37 31 31 31 30 30 30 30 30 30 31
32 32 31 31 32 31 31 31 32 31 31 31 31 31 31 31 31 31 31 32 31 31 31 31 33 37 37 38 39 39 36 32 32 31 30 30 29 29 30 29 29 28
32 32 31 31 31 30 30 31 31 31 31 31 31 32 31 31 31 31 31 31 31 30 30 30 31 34 35 35 36 36 32 31 31 31 30 30 30 30 29 30 30 31
32 32 31 31 32 30 30 30 31 31 31 33 32 31 30 30 29 29 28 28 29 29 30 30 30 33 35 34 33 33 32 31 30 30 30 31 31 32 32 32 32 32
30 31 31 31 30 30 30 30 30 30 29 30 30 30 29 28 27 27 26 26 27 28 29 29 29 31 34 34 33 32 30 29 29 29 30 30 31 31 31 30 30 31
28 29 29 30 29 29 28 28 28 28 29 29 28 28 27 26 26 25 24 24 25 26 27 28 29 29 32 34 33 32 31 27 27 28 28 29 30 30 30 30 29 29
MSLP
1002.45 1002.65 1002.73 1002.93 1003.05 1003.21 1003.49 1003.85 1004.13 1004.29 1004.53 1004.81 1004.97 1005.21 1005.41 1005.49 1005.89 1006.17 1006.33 1006.65 1006.89 1007.21 1007.53 1007.85 1008.17 1008.49 1008.81 1009.13 1009.41 1009.65 1009.93 1010.09 1010.37 1010.65 1010.85 1011.13 1011.29 1011.49 1011.69 1011.89 1012.13 1012.17
1002.25 1002.41 1002.53 1002.73 1002.97 1003.17 1003.33 1003.49 1003.73 1003.93 1004.21 1004.45 1004.57 1004.81 1005.05 1005.37 1005.65 1005.85 1006.17 1006.41 1006.65 1006.89 1007.21 1007.57 1007.93 1008.21 1008.57 1008.89 1009.25 1009.49 1009.77 1010.01 1010.17 1010.49 1010.69 1010.93 1011.05 1011.37 1011.45 1011.61 1011.81 1012.13
1002.13 1002.25 1002.37 1002.49 1002.65 1002.89 1003.05 1003.33 1003.49 1003.73 1003.85 1004.05 1004.29 1004.53 1004.81 1005.09 1005.37 1005.61 1005.85 1006.05 1006.33 1006.61 1006.93 1007.29 1007.65 1007.97 1008.29 1008.57 1008.93 1009.21 1009.45 1009.73 1009.89 1010.21 1010.41 1010.57 1010.85 1011.09 1011.17 1011.41 1011.69 1011.89
1001.85 1001.93 1002.09 1002.25 1002.45 1002.65 1002.93 1003.21 1003.45 1003.61 1003.77 1004.01 1004.17 1004.29 1004.49 1004.77 1005.05 1005.33 1005.53 1005.73 1005.97 1006.29 1006.61 1006.97 1007.29 1007.69 1008.01 1008.33 1008.65 1008.93 1009.09 1009.29 1009.41 1009.81 1010.09 1010.41 1010.61 1010.77 1010.93 1011.21 1011.41 1011.73
1001.45 1001.73 1001.97 1002.13 1002.33 1002.49 1002.77 1002.97 1003.13 1003.37 1003.49 1003.57 1003.85 1004.13 1004.37 1004.65 1004.89 1005.13 1005.33 1005.49 1005.69 1005.97 1006.37 1006.69 1007.05 1007.41 1007.77 1008.13 1008.41 1008.69 1008.97 1009.09 1009.37 1009.61 1009.85 1010.09 1010.29 1010.53 1010.69 1011.01 1011.17 1011.33
1001.49 1001.61 1001.77 1001.93 1002.13 1002.37 1002.61 1002.73 1002.85 1003.05 1003.25 1003.49 1003.57 1003.89 1004.05 1004.29 1004.53 1004.77 1005.01 1005.21 1005.49 1005.69 1006.09 1006.45 1006.81 1007.17 1007.53 1007.85 1008.21 1008.37 1008.65 1008.89 1009.13 1009.37 1009.57 1009.77 1010.01 1010.29 1010.49 1010.69 1010.89 1011.01
1001.13 1001.45 1001.61 1001.81 1002.01 1002.17 1002.25 1002.41 1002.57 1002.77 1002.97 1003.09 1003.45 1003.65 1003.85 1004.13 1004.29 1004.45 1004.65 1004.85 1005.13 1005.45 1005.73 1006.13 1006.49 1006.93 1007.29 1007.61 1007.89 1008.13 1008.37 1008.53 1008.81 1009.13 1009.25 1009.49 1009.69 1009.97 1010.29 1010.45 1010.57 1010.65
1000.89 1001.21 1001.37 1001.65 1001.77 1001.97 1002.01 1002.13 1002.29 1002.45 1002.61 1002.97 1003.13 1003.33 1003.61 1003.77 1003.93 1004.17 1004.33 1004.57 1004.85 1005.13 1005.45 1005.77 1006.13 1006.45 1006.89 1007.25 1007.57 1007.85 1008.09 1008.29 1008.49 1008.77 1008.97 1009.17 1009.45 1009.53 1009.89 1010.13 1010.25 1010.41
1000.93 1001.05 1001.21 1001.37 1001.49 1001.65 1001.77 1001.89 1002.05 1002.21 1002.49 1002.65 1002.89 1003.13 1003.45 1003.49 1003.65 1003.85 1004.05 1004.29 1004.49 1004.77 1005.09 1005.45 1005.73 1006.09 1006.49 1006.81 1007.09 1007.33 1007.57 1007.89 1008.05 1008.29 1008.53 1008.81 1009.09 1009.17 1009.41 1009.73 1010.01 1010.09
1000.85 1000.89 1001.01 1001.13 1001.17 1001.29 1001.41 1001.65 1001.85 1002.05 1002.33 1002.49 1002.65 1002.97 1003.17 1003.37 1003.45 1003.61 1003.85 1004.05 1004.25 1004.53 1004.85 1005.13 1005.49 1005.85 1006.21 1006.49 1006.69 1006.93 1007.17 1007.41 1007.73 1007.97 1008.17 1008.37 1008.49 1008.77 1009.05 1009.37 1009.45 1009.73
1000.57 1000.73 1000.73 1000.81 1000.81 1001.01 1001.09 1001.41 1001.65 1001.93 1002.21 1002.29 1002.57 1002.77 1002.93 1003.17 1003.37 1003.53 1003.69 1003.89 1004.09 1004.33 1004.69 1005.01 1005.25 1005.61 1005.93 1006.25 1006.49 1006.65 1006.81 1007.05 1007.37 1007.61 1007.81 1008.01 1008.17 1008.37 1008.65 1008.93 1009.17 1009.29
1000.17 1000.45 1000.45 1000.41 1000.49 1000.69 1000.89 1001.13 1001.45 1001.73 1001.97 1002.21 1002.29 1002.45 1002.73 1002.93 1003.05 1003.33 1003.41 1003.65 1003.89 1004.13 1004.41 1004.69 1005.05 1005.33 1005.57 1005.85 1006.17 1006.45 1006.69 1006.89 1007.09 1007.33 1007.53 1007.77 1008.01 1008.21 1008.41 1008.61 1008.77 1009.01
999.77 999.89 1000.05 1000.17 1000.29 1000.41 1000.73 1001.05 1001.25 1001.53 1001.77 1001.93 1002.17 1002.21 1002.45 1002.65 1002.89 1003.01 1003.25 1003.37 1003.69 1003.97 1004.25 1004.53 1004.85 1005.13 1005.41 1005.69 1006.01 1006.29 1006.53 1006.73 1006.97 1007.17 1007.41 1007.65 1007.81 1008.01 1008.17 1008.37 1008.57 1008.85
999.25 999.53 999.85 1000.05 1000.25 1000.49 1000.69 1000.85 1001.09 1001.33 1001.49 1001.69 1001.97 1002.01 1002.13 1002.29 1002.53 1002.77 1003.09 1003.33 1003.53 1003.73 1004.01 1004.33 1004.61 1004.97 1005.25 1005.49 1005.77 1006.01 1006.29 1006.53 1006.73 1006.97 1007.21 1007.45 1007.65 1007.85 1008.01 1008.17 1008.37 1008.61
999.01 999.49 999.77 1000.01 1000.25 1000.41 1000.57 1000.77 1000.93 1001.09 1001.37 1001.57 1001.77 1001.81 1001.97 1002.09 1002.33 1002.53 1002.89 1003.25 1003.49 1003.69 1003.97 1004.25 1004.45 1004.65 1004.93 1005.17 1005.49 1005.81 1006.05 1006.25 1006.49 1006.73 1006.97 1007.21 1007.45 1007.69 1007.93 1008.09 1008.33 1008.53
998.97 999.37 999.57 999.85 1000.05 1000.17 1000.37 1000.65 1000.85 1001.09 1001.25 1001.45 1001.61 1001.73 1001.89 1002.13 1002.33 1002.57 1002.69 1002.93 1003.29 1003.65 1003.93 1004.17 1004.37 1004.57 1004.73 1004.89 1005.09 1005.41 1005.81 1006.05 1006.37 1006.61 1006.85 1007.09 1007.33 1007.65 1007.93 1008.17 1008.29 1008.45
998.93 999.13 999.49 999.57 999.77 1000.05 1000.33 1000.49 1000.69 1000.93 1001.09 1001.21 1001.45 1001.65 1001.81 1002.05 1002.25 1002.41 1002.61 1002.81 1003.01 1003.33 1003.65 1003.89 1004.09 1004.25 1004.41 1004.65 1004.89 1005.17 1005.53 1005.89 1006.13 1006.41 1006.73 1006.97 1007.21 1007.41 1007.61 1007.89 1008.21 1008.45
998.65 999.01 999.21 999.41 999.73 999.81 1000.05 1000.29 1000.57 1000.73 1000.81 1001.05 1001.29 1001.49 1001.77 1002.01 1002.01 1002.17 1002.49 1002.77 1003.05 1003.33 1003.45 1003.69 1003.89 1004.13 1004.25 1004.41 1004.65 1004.89 1005.21 1005.53 1005.89 1006.17 1006.53 1006.77 1007.05 1007.25 1007.45 1007.73 1007.93 1008.21
998.69 998.77 998.97 999.25 999.49 999.77 1000.09 1000.25 1000.29 1000.53 1000.77 1000.97 1001.09 1001.49 1001.77 1001.73 1001.97 1002.25 1002.49 1002.81 1002.93 1003.13 1003.53 1003.89 1004.05 1004.13 1004.17 1004.29 1004.49 1004.77 1005.05 1005.37 1005.73 1006.01 1006.25 1006.57 1006.85 1007.05 1007.25 1007.45 1007.69 1007.93
998.69 998.81 998.77 999.25 999.85 1000.09 1000.13 999.93 999.97 1000.21 1000.65 1001.09 1001.45 1001.69 1001.61 1001.89 1002.21 1002.29 1002.65 1002.81 1003.01 1003.33 1003.81 1004.09 1004.09 1004.05 1004.05 1004.17 1004.37 1004.61 1004.89 1005.25 1005.61 1005.89 1006.17 1006.45 1006.69 1006.97 1007.17 1007.33 1007.57 1007.77
998.89 999.21 999.45 1000.05 1000.29 1000.29 1000.13 1000.09 1000.33 1000.89 1001.17 1001.45 1001.49 1001.49 1001.45 1001.49 1001.93 1002.29 1002.89 1003.17 1003.53 1003.77 1003.93 1004.13 1004.21 1004.05 1004.05 1004.13 1004.25 1004.45 1004.73 1005.13 1005.53 1005.85 1006.13 1006.53 1006.89 1007.13 1007.29 1007.49 1007.73 1007.97
998.97 999.45 999.97 1000.29 1000.45 1000.49 1000.37 1000.73 1001.09 1001.09 1001.33 1001.77 1001.85 1002.17 1002.45 1002.61 1003.01 1003.01 1003.17 1003.49 1003.85 1003.97 1004.01 1004.33 1004.49 1004.25 1004.21 1004.29 1004.41 1004.57 1004.89 1005.33 1005.69 1005.97 1006.37 1006.81 1007.13 1007.33 1007.45 1007.61 1007.73 1007.81
998.97 999.17 999.65 1000.05 1000.17 1000.05 1000.45 1000.93 1001.17 1001.49 1001.77 1001.97 1001.97 1002.41 1002.45 1002.69 1003.09 1003.41 1003.77 1003.93 1004.21 1004.33 1004.41 1004.85 1004.97 1004.89 1004.77 1004.77 1004.81 1004.89 1005.01 1005.61 1005.97 1006.33 1006.69 1006.97 1007.29 1007.49 1007.61 1007.77 1007.89 1008.01
998.77 998.77 998.93 999.45 999.49 999.41 1000.09 1001.01 1001.29 1001.33 1001.57 1001.89 1001.93 1002.57 1002.97 1003.53 1003.77 1004.13 1004.49 1004.65 1004.69 1004.93 1005.05 1005.21 1005.49 1005.41 1005.33 1005.37 1005.41 1005.49 1005.49 1005.81 1006.25 1006.45 1006.97 1007.25 1007.53 1007.69 1007.85 1008.05 1008.17 1008.21
998.65 998.61 998.69 998.97 999.29 999.89 1000.25 1000.61 1001.09 1001.37 1001.81 1002.05 1002.41 1002.89 1003.53 1003.97 1004.21 1004.57 1005.09 1005.37 1005.49 1005.57 1005.61 1005.65 1005.89 1005.89 1005.77 1005.85 1005.97 1006.09 1006.25 1006.49 1006.65 1006.81 1007.09 1007.45 1007.61 1007.77 1008.09 1008.41 1008.61 1008.65
999.21 999.01 999.05 999.17 999.61 1000.13 1000.45 1000.73 1001.09 1001.41 1001.77 1002.21 1002.81 1003.17 1003.77 1004.25 1004.65 1005.01 1005.45 1006.01 1006.17 1006.13 1006.17 1006.17 1006.17 1006.29 1006.25 1006.21 1006.29 1006.45 1006.65 1006.89 1007.05 1007.05 1007.53 1007.81 1007.97 1008.09 1008.33 1008.69 1008.97 1009.17
Wind_Speed
7 6 7 7 7 7 7 7 6 7 7 7 8 8 9 9 7 9 9 8 7 7 7 7 6 6 7 7 7 6 7 8 7 6 7 7 7 7 8 7 6 7
7 7 5 5 5 5 6 7 8 8 8 8 8 7 7 6 7 8 8 9 8 8 7 7 7 7 7 7 7 7 7 6 7 5 7 7 7 6 8 7 8 6
5 5 6 7 7 7 7 7 7 7 8 8 7 7 7 6 8 7 8 9 8 8 8 8 8 8 8 8 8 8 8 7 8 7 7 8 6 7 7 7 6 7
6 7 7 7 7 7 6 7 6 6 5 6 7 7 7 7 7 8 8 9 8 8 8 8 8 8 8 8 8 8 8 8 8 7 7 5 6 7 7 6 6 5
8 7 6 6 6 6 6 7 7 7 7 8 6 6 7 6 7 7 8 8 8 8 8 8 7 8 8 8 8 8 7 8 6 7 7 8 7 7 7 6 7 7
5 5 6 6 6 7 7 7 7 7 7 6 8 7 7 7 8 8 8 8 8 8 8 7 8 7 8 8 8 8 8 7 7 7 7 8 7 7 6 7 7 8
7 6 7 6 6 7 8 8 7 7 7 7 5 7 7 8 8 8 8 9 9 8 9 8 8 8 8 8 8 8 7 8 7 8 8 8 7 7 6 6 7 8
7 5 7 6 7 7 7 7 7 7 7 6 7 8 8 9 9 8 8 8 8 9 9 9 9 9 8 8 9 8 8 7 8 9 8 8 7 8 7 7 7 8
5 6 6 7 7 7 7 7 7 6 6 8 8 7 7 8 9 8 8 8 8 9 9 8 9 9 8 9 9 10 10 9 9 9 10 9 9 9 8 7 7 8
6 6 7 7 7 7 7 6 6 6 6 7 7 7 8 7 7 8 7 8 8 8 8 8 8 8 8 9 10 10 9 10 9 9 9 9 10 9 8 8 9 8
6 6 7 7 7 6 7 6 6 6 6 7 7 7 7 7 6 6 7 7 8 8 8 7 8 8 9 8 8 8 9 9 9 9 9 9 9 9 8 9 8 9
7 6 7 8 8 7 8 7 7 6 7 6 7 8 7 7 8 7 8 8 7 8 8 8 8 8 9 9 9 8 7 8 8 8 8 8 7 7 7 8 8 8
7 8 8 8 8 8 6 6 7 7 7 8 7 8 8 8 6 7 6 7 7 7 7 7 7 7 7 7 7 7 8 8 7 7 7 7 6 7 7 7 7 6
9 7 6 6 5 4 5 6 6 6 7 6 7 7 8 8 8 8 6 6 7 7 7 7 7 7 6 7 7 7 7 7 7 7 7 6 5 6 6 7 7 6
6 5 4 5 5 5 5 6 6 6 5 6 6 6 6 6 6 7 7 6 5 5 5 5 7 7 7 8 7 7 7 7 7 7 7 7 6 5 5 5 4 4
5 5 5 5 5 6 6 5 5 5 6 5 5 5 5 5 5 4 6 7 6 5 5 5 5 5 7 12 10 8 7 6 5 6 6 5 5 4 4 4 4 4
5 6 5 6 6 5 5 6 6 6 6 5 5 5 6 5 6 6 5 6 7 7 6 6 6 6 10 11 12 11 7 6 7 6 5 5 5 5 5 4 4 3
6 6 6 6 6 6 6 6 6 6 6 6 6 5 5 5 6 6 6 5 5 5 6 6 6 6 10 10 11 12 10 7 6 6 6 5 5 5 5 4 4 4
6 7 6 6 7 6 6 7 7 7 6 6 6 5 5 6 6 6 6 5 6 6 4 3 3 4 7 9 10 11 11 8 6 5 5 5 5 5 5 4 4 4
6 6 7 6 6 7 7 7 7 7 7 5 6 6 6 6 6 6 6 6 6 7 6 4 3 5 7 8 9 10 11 8 5 6 5 5 5 5 4 4 4 4
5 6 7 5 5 5 6 6 7 7 7 5 6 6 8 9 9 8 6 7 7 7 7 6 3 6 7 8 9 10 12 8 5 5 5 4 4 4 4 3 3 4
6 6 5 6 6 6 7 7 6 6 8 6 7 6 6 7 6 8 9 8 7 7 8 8 5 10 10 10 10 11 10 6 6 6 6 6 5 4 5 4 4 4
7 8 8 7 7 9 8 7 7 6 6 5 9 8 9 8 8 7 7 8 7 7 9 7 7 9 12 12 12 12 8 7 7 7 7 7 6 5 4 4 4 3
8 10 10 9 9 11 9 7 7 7 7 6 10 9 9 7 7 8 7 6 8 7 7 9 7 9 13 13 13 13 10 9 8 9 8 7 6 5 5 6 7 8
7 8 9 9 9 8 8 9 8 7 6 6 8 9 8 7 8 9 9 8 8 8 10 10 8 9 14 14 13 12 9 7 7 7 8 6 6 6 6 6 6 7
3 6 6 8 9 8 7 7 7 8 8 9 8 8 9 8 8 9 10 8 7 8 8 7 9 8 11 16 15 14 12 7 5 7 6 6 5 5 5 5 6 5
Wind_Direction
188 186 186 186 190 185 176 178 182 182 189 185 188 196 192 199 177 182 189 183 183 182 179 177 176 176 176 174 177 176 184 194 192 182 189 191 205 197 201 204 201 204
195 187 187 182 184 184 183 182 182 185 188 189 196 190 193 173 183 178 181 183 182 184 178 176 179 180 175 175 176 179 185 185 197 177 186 192 205 197 211 206 206 204
188 187 186 186 190 192 188 188 185 189 186 195 191 185 183 178 175 183 181 181 182 181 178 179 177 181 180 180 177 182 184 187 197 186 186 197 194 198 213 204 202 198
196 195 194 196 191 190 187 180 192 189 185 178 191 188 179 181 174 179 182 180 181 182 180 175 182 181 182 182 176 186 190 194 197 178 189 193 197 199 208 196 202 201
195 198 199 197 195 188 179 186 189 188 187 193 184 180 175 170 176 178 179 182 182 182 176 181 179 182 180 181 180 185 189 196 188 178 186 198 202 194 205 186 198 210
206 201 196 194 191 183 188 192 192 187 190 183 190 178 183 178 177 180 180 179 183 178 179 177 179 183 178 181 180 191 186 193 191 181 190 199 203 201 191 191 197 208
201 192 197 194 190 191 191 194 190 188 189 191 166 187 178 177 182 184 181 183 178 179 179 180 182 182 182 177 183 188 191 194 186 185 192 204 198 204 196 190 201 209
204 193 193 189 191 193 196 192 192 190 188 173 185 192 179 183 186 184 183 179 178 182 183 183 186 185 180 177 183 187 195 192 190 188 196 202 195 208 197 201 198 208
195 193 190 191 190 196 199 194 194 192 180 184 192 187 190 187 187 184 182 179 181 184 183 185 187 187 181 182 187 188 192 195 194 191 194 195 198 207 200 194 200 208
199 198 188 189 194 199 199 197 191 190 183 189 191 183 186 198 188 183 178 179 183 185 186 186 185 184 181 187 189 189 193 196 194 197 197 198 200 203 198 191 203 205
203 195 195 195 200 197 201 192 192 187 185 190 183 189 190 182 191 180 177 178 184 185 184 186 186 183 184 188 192 193 194 194 196 198 201 202 203 202 197 197 200 206
203 198 203 202 201 199 196 190 187 186 187 195 185 187 184 186 181 184 180 183 185 185 185 187 183 186 188 188 190 191 194 197 197 200 202 202 203 202 200 199 202 205
201 206 203 204 201 199 187 181 185 188 184 190 189 183 179 183 186 181 189 178 184 177 184 182 184 185 187 187 187 187 192 193 197 199 200 202 202 202 203 204 205 200
211 204 201 204 199 183 180 186 182 182 190 185 175 182 182 182 178 179 180 176 177 182 184 177 177 180 184 186 184 185 186 195 194 195 199 201 203 203 201 205 206 199
200 194 184 183 179 176 178 183 186 185 180 173 178 182 177 177 173 169 162 171 168 173 172 170 175 184 183 180 181 185 184 191 191 193 194 197 203 206 205 207 205 201
184 177 182 175 175 182 185 178 174 171 165 167 176 172 163 154 147 149 157 164 163 160 157 164 179 183 188 186 184 179 183 185 184 192 190 192 192 197 208 205 207 200
172 184 168 179 185 174 166 167 166 160 160 161 158 154 152 150 144 146 156 160 163 162 164 175 182 187 189 187 187 178 171 173 181 188 184 182 184 186 200 203 209 204
178 168 171 176 167 174 169 165 153 151 153 153 149 144 142 138 145 154 151 149 143 152 162 175 183 184 181 186 184 179 171 172 172 172 175 176 175 181 185 181 191 193
164 168 164 164 171 157 155 151 146 140 134 141 150 148 134 138 144 135 141 142 141 141 136 128 130 170 181 181 183 178 172 160 162 162 161 171 167 170 175 178 176 175
162 157 140 149 150 151 152 147 140 140 130 129 129 131 131 123 124 127 132 132 127 119 112 103 97 120 141 160 168 169 164 149 151 148 146 151 159 161 165 172 175 176
145 141 135 143 144 135 130 119 118 117 116 118 128 133 132 126 134 120 119 118 113 112 103 88 62 94 110 120 136 150 154 140 131 125 121 108 104 113 126 138 142 142
137 130 127 126 123 115 88 92 98 85 115 119 104 98 102 106 93 102 107 106 110 108 99 85 66 78 88 92 106 116 107 105 112 107 104 97 91 95 102 107 115 120
142 138 133 131 129 110 104 113 120 115 103 102 90 106 97 65 89 80 102 107 99 93 93 83 66 70 80 87 101 109 96 98 103 100 93 93 86 89 91 87 86 94
144 138 132 130 125 119 123 123 115 95 113 128 119 116 96 97 98 85 66 72 83 78 82 86 69 63 74 76 82 92 99 102 105 102 98 97 99 89 89 83 80 87
139 134 134 132 128 129 130 130 130 128 118 100 99 100 98 97 91 89 79 63 66 76 73 78 74 62 67 72 72 77 82 90 98 100 99 94 98 91 80 87 74 64
80 107 109 117 118 111 105 109 117 114 114 108 101 104 105 97 90 90 88 73 64 68 65 67 76 71 68 70 69 69 73 77 72 92 98 101 86 89 91 66 61 54